The Dalles, WA

10:17 PM PDT on August 25, 2019 (GMT -0700)
Columbia Gorge Regional-The Dalles

Weather History for KDLS - June, 2019

Change the Weather History Date:

Saturday, June 1, 2019

  Actual Average Record
Temperature  
Mean Temperature 76 °F -  
Max Temperature 89 °F 77 °F 96 °F (1975)
Min Temperature 63 °F 51 °F 37 °F (1966)
Cooling Degree Days 10    
Growing Degree Days 26 (Base 50)    
Moisture  
Dew Point 53 °F    
Average Humidity 50    
Maximum Humidity 70    
Minimum Humidity 26    
Precipitation  
Precipitation 0.00 in - - ()
Sea Level Pressure  
Sea Level Pressure 29.85 in    
Wind  
Wind Speed 12 mph (NW)    
Max Wind Speed 21 mph    
Max Gust Speed 29 mph    
Visibility 10 miles    
Events      
Averages and records for this station are not official NWS values.
T = Trace of Precipitation, MM = Missing Value Source: NWS Daily Summary

Daily Weather History Graph

Daily Weather History Graph

Search for Another Location

Airport or City:

Astronomy

Jun. 01, 2019 Rise Set
Actual Time 5:18 AM PDT 8:46 PM PDT
Civil Twilight 4:42 AM PDT 9:23 PM PDT
Nautical Twilight 3:53 AM PDT 10:12 PM PDT
Astronomical Twilight 2:50 AM PDT 11:15 PM PDT
Moon 4:35 AM PDT (6/1) 6:58 PM PDT (6/1)
Length of Visible Light 16h 41m
Length of Day
15h 27m
Waning Crescent, 3% of the Moon is Illuminated
Jun 1
Waning Crescent
Jun 3
New
Jun 9
First Quarter
Jun 17
Full
Jun 25
Last Quarter

Hourly Weather History & Observations

Time (PDT) Temp. Heat Index Dew Point Humidity Pressure Visibility Wind Dir Wind Speed Gust Speed Precip Events Conditions
12:53 AM 70.0 °F - 55.9 °F 61% 29.91 in 10.0 mi NNW 15.0 mph 24.2 mph N/A   Clear
2:53 AM 66.0 °F - 55.0 °F 68% 29.91 in 10.0 mi Variable 3.5 mph - N/A   Clear
3:53 AM 64.0 °F - 54.0 °F 70% 29.92 in 10.0 mi WNW 9.2 mph - N/A   Clear
4:53 AM 63.0 °F - 53.1 °F 70% 29.92 in 10.0 mi WNW 6.9 mph - N/A   Clear
5:53 AM 63.0 °F - 53.1 °F 70% 29.93 in 10.0 mi Calm Calm - N/A   Clear
6:53 AM 63.0 °F - 53.1 °F 70% 29.93 in 10.0 mi NW 13.8 mph - N/A   Clear
7:53 AM 66.0 °F - 54.0 °F 65% 29.93 in 10.0 mi NW 10.4 mph - N/A   Clear
8:53 AM 69.1 °F - 54.0 °F 58% 29.93 in 10.0 mi NW 12.7 mph 17.3 mph N/A   Clear
9:53 AM 73.0 °F - 55.0 °F 53% 29.91 in 10.0 mi NW 11.5 mph - N/A   Clear
10:53 AM 75.9 °F - 54.0 °F 46% 29.89 in 10.0 mi NW 13.8 mph 24.2 mph N/A   Clear
11:53 AM 78.1 °F - 54.0 °F 43% 29.87 in 10.0 mi NNW 19.6 mph 28.8 mph N/A   Clear
12:53 PM 81.0 °F 80.5 °F 54.0 °F 39% 29.85 in 10.0 mi NNW 20.7 mph 26.5 mph N/A   Clear
1:53 PM 84.0 °F 82.6 °F 54.0 °F 35% 29.83 in 10.0 mi NNW 18.4 mph 25.3 mph N/A   Clear
2:53 PM 86.0 °F - 52.0 °F 31% 29.81 in 10.0 mi NNW 16.1 mph - N/A   Clear
3:53 PM 88.0 °F - 48.9 °F 26% 29.79 in 10.0 mi NW 11.5 mph - N/A   Clear
4:53 PM 86.0 °F - 52.0 °F 31% 29.78 in 10.0 mi NW 9.2 mph - N/A   Clear
5:53 PM 82.9 °F 81.8 °F 53.1 °F 36% 29.78 in 10.0 mi NNW 13.8 mph 19.6 mph N/A   Clear
6:53 PM 80.1 °F 79.9 °F 53.1 °F 39% 29.78 in 10.0 mi NW 12.7 mph 21.9 mph N/A   Clear
7:53 PM 77.0 °F - 51.1 °F 40% 29.77 in 10.0 mi NW 13.8 mph 21.9 mph N/A   Clear
8:53 PM 75.0 °F - 51.1 °F 43% 29.78 in 10.0 mi NNW 12.7 mph - N/A   Clear
9:53 PM 72.0 °F - 53.1 °F 51% 29.80 in 10.0 mi WNW 8.1 mph - N/A   Clear
10:53 PM 70.0 °F - 53.1 °F 55% 29.81 in 10.0 mi NW 9.2 mph - N/A   Clear
11:53 PM 68.0 °F - 54.0 °F 61% 29.82 in 10.0 mi NNW 13.8 mph - N/A   Clear